[[{"header":{"parameterUnit":"m.s-1","parameterCategory":1,"la1":30.2991,"la2":30.254,"lo1":-89.0895,"lo2":-89.0444,"dy":0.0017,"dx":0.0017,"nx":28,"ny":28,"refTime":"2024-03-03T09:00:00:Z","depth":0,"parameterNumber":2,"parameterNumberName":"U-component_of_WINDS"},"data":[0,0,0,0,0,0,0,0,0,0,0,0,0,0,0,0,0,0,0,0,0,0,0,0,0,0,0,0,0,0,0,0,0,0,0,0,0,0,0,0,0,0,0,0,0,0,0,0,0,0,0,0,0,0,0,0,0,0,-5.6878,-5.6879,0,-5.6947,-5.6948,-5.6949,-5.6869,-5.6866,-5.6863,-5.6861,-5.6931,-5.6936,-5.6941,0,0,0,0,0,0,0,0,0,0,0,0,0,-5.6678,-5.6682,-5.6878,-5.6879,-5.688,-5.6947,-5.6948,-5.6949,-5.687,-5.6866,-5.6863,-5.6859,-5.693,-5.6935,-5.6941,0,0,0,0,0,0,0,0,0,0,0,0,0,-5.6758,-5.6684,-5.6878,-5.6848,-5.6846,-5.6947,-5.6948,-5.6949,-5.6871,-5.6866,-5.6862,-5.6858,-5.6928,-5.6935,-5.6942,-5.7075,0,0,-5.6963,-5.6966,0,0,0,0,0,0,0,0,-5.6754,-5.6766,-5.6852,-5.6851,-5.6849,-5.6895,-5.6904,-5.6991,-5.6872,-5.6862,-5.6861,-5.6855,-5.6923,-5.693,-5.6953,-5.7078,-5.7081,-5.6964,-5.6968,-5.6971,-5.6973,0,0,0,0,0,0,0,-5.6748,-5.6762,-5.6905,-5.6853,-5.6851,-5.6832,-5.6839,-5.692,-5.6917,-5.6862,-5.6856,-5.6866,-5.6921,-5.6946,-5.6954,-5.7082,-5.6964,-5.697,-5.6974,-5.6977,-5.7321,-5.7326,0,0,0,0,0,0,-5.6746,-5.6758,-5.6903,-5.6907,-5.6789,-5.6839,-5.6847,-5.6885,-5.6915,-5.6916,-5.687,-5.6862,-5.6937,-5.6946,-5.6956,-5.7114,-5.6971,-5.6978,-5.6982,-5.7317,-5.7323,-5.7328,0,0,0,0,0,0,-5.6742,-5.676,-5.69,-5.6831,-5.6848,-5.6848,-5.6891,-5.6888,-5.6913,-5.6921,-5.692,-5.6896,-5.6933,-5.6946,-5.7046,-5.7115,-5.6981,-5.6987,-5.7311,-5.7318,-5.7325,-5.7431,0,0,0,0,0,0,-5.6737,-5.6759,-5.6809,-5.6833,-5.6852,-5.6989,-5.6895,-5.6893,-5.6926,-5.6916,-5.6945,-5.6946,-5.6931,-5.7036,-5.7053,-5.7122,-5.6993,-5.7304,-5.7314,-5.7323,-5.7421,-5.7441,-5.7458,0,0,0,0,0,-5.673,-5.6835,-5.6812,-5.6829,-5.6914,-5.6993,-5.7004,-5.6984,-5.6932,-5.6982,-5.6988,-5.6945,-5.7106,-5.7047,-5.7065,-5.7138,-5.73,-5.7311,-5.7322,-5.7413,-5.7437,-5.7457,0,0,0,0,0,0,-5.6818,-5.6838,-5.6812,-5.6928,-5.696,-5.6979,-5.7042,-5.701,-5.7057,-5.7046,-5.7021,-5.7028,-5.7134,-5.7146,-5.7081,-5.7269,-5.7194,-5.721,-5.7257,-5.728,-5.7298,-5.7292,-5.6998,0,0,0,0,0,-5.6851,-5.6913,-5.6927,-5.7029,-5.7046,-5.7042,-5.7075,-5.7058,-5.709,-5.7102,-5.7115,-5.7147,-5.7205,-5.7243,-5.7297,-5.7424,-5.7429,-5.7483,-5.7501,-5.7516,-5.7529,-5.7598,-5.7622,-5.7364,-5.7364,-5.7364,0,0,-5.6919,-5.6938,-5.6979,-5.7047,-5.7069,-5.7135,-5.7053,-5.7125,-5.7174,-5.7113,-5.7208,-5.7219,-5.7254,-5.7368,-5.7418,-5.7381,-5.7602,-5.753,-5.7542,-5.7547,-5.7611,-5.7636,-5.7657,-5.7372,-5.7371,-5.7369,0,0,-5.7077,-5.7098,-5.7185,-5.721,-5.7245,-5.7242,-5.7264,-5.7289,-5.7294,-5.7389,-5.7346,-5.7404,-5.7504,-5.753,-5.7557,-5.773,-5.7692,-5.7748,-5.7843,-5.791,-5.793,-5.7948,-5.8009,-5.8031,-5.7761,-5.7762,-5.7762,0,-5.7157,-5.7254,-5.7233,-5.7309,-5.7341,-5.7291,-5.7379,-5.7404,-5.7456,-5.7479,-5.7437,-5.7563,-5.7582,-5.7702,-5.7745,-5.7768,-5.7792,-5.7743,-5.7929,-5.7947,-5.7963,-5.8021,-5.8044,-5.7768,-5.7767,-5.7767,-5.7766,0,-5.7351,-5.7419,-5.7485,-5.7536,-5.7576,-5.7658,-5.7651,-5.7693,-5.7674,-5.7676,-5.7775,-5.7798,-5.7855,-5.7883,-5.7864,-5.8001,-5.7977,-5.7933,-5.7856,-5.7994,-5.8048,-5.807,-5.7777,-5.7775,-5.7773,-5.7771,0,0,-5.7561,-5.7604,-5.7628,-5.7651,-5.7689,-5.7741,-5.7822,-5.7879,-5.7916,-5.7955,-5.8022,-5.8109,-5.8069,-5.81,-5.8085,-5.8144,-5.8279,-5.8093,-5.8093,-5.8125,-5.8431,-5.8463,-5.8488,-5.8256,-5.826,-5.8264,-5.8428,0,-5.7719,-5.7858,-5.7844,-5.7976,-5.8039,-5.7995,-5.8066,-5.8097,-5.8102,-5.8157,-5.8162,-5.8225,-5.8168,-5.8186,-5.8243,-5.8251,-5.834,-5.8239,-5.8317,-5.8321,-5.8308,-5.8517,-5.855,-5.8703,-5.8449,-5.8452,-5.8455,0,-5.792,-5.7967,-5.8106,-5.8135,-5.8161,-5.8225,-5.8277,-5.833,-5.8366,-5.8365,-5.8402,-5.8377,-5.8459,-5.8384,-5.8496,-5.8428,-5.846,-5.847,-5.8475,-5.8479,-5.8394,-5.8525,-5.8752,-5.8774,-5.8488,-5.8486,-5.8483,0,-5.8059,-5.8156,-5.8252,-5.8274,-5.8311,-5.8357,-5.8375,-5.8406,-5.8442,-5.8489,-5.8512,-5.8568,-5.8598,-5.8642,-5.8633,-5.8579,-5.8749,-5.8672,-5.875,-5.8751,-5.8785,-5.8783,-5.9018,-5.881,-5.881,-5.8809,-5.8809,0,-5.8234,-5.8321,-5.8315,-5.8374,-5.8471,-5.8455,-5.8551,-5.8563,-5.8592,-5.8653,-5.8619,-5.8677,-5.8663,-5.8721,-5.8716,-5.881,-5.8824,-5.8826,-5.8823,-5.8828,-5.8828,-5.8846,-5.8835,-5.8815,-5.8814,-5.8813,-5.8812,0,-5.8403,-5.8403,-5.8505,-5.8533,-5.8543,-5.8613,-5.8637,-5.8693,-5.8697,-5.8775,-5.8792,-5.8798,-5.8865,-5.8862,-5.8938,-5.8934,-5.905,-5.9036,-5.9038,-5.9034,-5.9112,-5.9104,-5.9366,-5.9399,-5.9171,-5.9173,-5.9175,0,-5.8514,-5.858,-5.8616,-5.8655,-5.8676,-5.8739,-5.8776,-5.8765,-5.8805,-5.8852,-5.8903,-5.8967,-5.9017,-5.9126,-5.9138,-5.9196,-5.9181,-5.927,-5.919,-5.9193,-5.9181,-5.9176,-5.9183,-5.9284,-5.9287,-5.9289,-5.929,0,-5.871,-5.8708,-5.8763,-5.8819,-5.8865,-5.8909,-5.8948,-5.8982,-5.8975,-5.9023,-5.9091,-5.913,-5.9209,-5.9273,-5.9329,-5.9348,-5.9318,-5.9316,-5.9337,-5.9341,-5.9339,-5.934,-5.9078,-5.9309,-5.9307,-5.9306,-5.9305,-5.9304,-5.8852,-5.8909,-5.8944,-5.9007,-5.9037,-5.9076,-5.913,-5.9142,-5.9199,-5.9262,-5.9253,-5.9329,-5.9365,-5.9438,-5.9463,-5.9523,-5.9492,-5.9522,-5.9529,-5.9536,-5.9545,-5.9332,-5.9534,-5.9533,-5.9533,-5.9532,-5.9532,0,-5.9045,-5.9067,-5.9125,-5.9183,-5.9233,-5.9203,-5.9247,-5.9291,-5.9359,-5.9395,-5.9446,-5.9526,-5.9589,-5.9607,-5.9668,-5.9713,-5.9701,-5.9729,-5.9724,-5.9729,-5.957,-5.9545,-5.9738,-5.9738,-5.9738,-5.9738,-5.9738,-5.9738,-5.9151,-5.9246,-5.9249,-5.9359,-5.9379,-5.9454,-5.9482,-5.9518,-5.9547,-5.9638,-5.969,-5.9702,-5.9732,-5.9795,-5.9852,-5.9856,-5.9879,-5.9913,-5.9911,-5.9761,-5.974,-5.972,-5.9697,-5.9919,-5.9919,-6.0065,-6.0066,-6.0067]},{"header":{"parameterUnit":"m.s-1","parameterCategory":1,"la1":30.2991,"la2":30.254,"lo1":-89.0895,"lo2":-89.0444,"dy":0.0017,"dx":0.0017,"nx":28,"ny":28,"refTime":"2024-03-03T09:00:00:Z","depth":0,"parameterNumber":3,"parameterNumberName":"V-component_of_WINDS"},"data":[0,0,0,0,0,0,0,0,0,0,0,0,0,0,0,0,0,0,0,0,0,0,0,0,0,0,0,0,0,0,0,0,0,0,0,0,0,0,0,0,0,0,0,0,0,0,0,0,0,0,0,0,0,0,0,0,0,0,1.3623,1.3623,0,1.3671,1.3671,1.3672,1.3703,1.3703,1.3703,1.3703,1.375,1.3751,1.3752,0,0,0,0,0,0,0,0,0,0,0,0,0,1.3559,1.356,1.3623,1.3623,1.3624,1.3671,1.3671,1.3672,1.3703,1.3703,1.3703,1.3703,1.3749,1.3751,1.3752,0,0,0,0,0,0,0,0,0,0,0,0,0,1.3594,1.356,1.3623,1.3645,1.3648,1.367,1.3671,1.3672,1.3703,1.3703,1.3703,1.3704,1.3749,1.3751,1.3752,1.3756,0,0,1.3757,1.3758,0,0,0,0,0,0,0,0,1.3592,1.3597,1.3641,1.3644,1.3646,1.3681,1.3666,1.37,1.3703,1.3682,1.3703,1.3704,1.3727,1.373,1.3738,1.3758,1.376,1.3757,1.3758,1.3759,1.3759,0,0,0,0,0,0,0,1.359,1.3595,1.3642,1.3642,1.3645,1.3653,1.3658,1.3672,1.3702,1.3683,1.3686,1.3691,1.3728,1.3737,1.374,1.3761,1.3757,1.3758,1.3759,1.376,1.3789,1.3789,0,0,0,0,0,0,1.3584,1.3593,1.364,1.3643,1.362,1.3654,1.366,1.367,1.3702,1.3707,1.3691,1.3692,1.3734,1.3738,1.3741,1.375,1.3759,1.376,1.3761,1.3789,1.3789,1.3789,0,0,0,0,0,0,1.3583,1.3588,1.3638,1.3619,1.3626,1.3655,1.3665,1.367,1.3679,1.3707,1.3713,1.3694,1.3734,1.3739,1.3753,1.3752,1.3761,1.3762,1.3789,1.3789,1.3789,1.3765,0,0,0,0,0,0,1.3581,1.3587,1.3589,1.3618,1.3627,1.3649,1.3665,1.3671,1.3682,1.3684,1.3712,1.3717,1.3735,1.375,1.3754,1.3754,1.3764,1.379,1.3789,1.3789,1.3766,1.3764,1.3762,0,0,0,0,0,1.3578,1.3579,1.3588,1.3594,1.3629,1.3649,1.3653,1.3675,1.3682,1.3684,1.3702,1.3716,1.3751,1.3751,1.3756,1.3756,1.379,1.3789,1.3789,1.3767,1.3764,1.3762,0,0,0,0,0,0,1.3546,1.3583,1.3594,1.3604,1.3623,1.3654,1.3657,1.3671,1.3688,1.3689,1.3715,1.372,1.3732,1.3746,1.3745,1.3763,1.3772,1.3773,1.3754,1.3752,1.375,1.3746,1.3765,0,0,0,0,0,1.3541,1.3554,1.3585,1.3591,1.36,1.3627,1.3636,1.3652,1.3672,1.368,1.3699,1.3718,1.3734,1.3744,1.3759,1.3769,1.3776,1.3771,1.3769,1.3768,1.3768,1.3776,1.3775,1.3788,1.3788,1.3788,0,0,1.3529,1.355,1.3557,1.3586,1.3602,1.3616,1.3633,1.3646,1.3657,1.3681,1.3696,1.3712,1.3735,1.3747,1.3753,1.3758,1.3766,1.3767,1.3765,1.3767,1.3776,1.3774,1.3773,1.3787,1.3787,1.3787,0,0,1.3514,1.3531,1.354,1.3557,1.3582,1.3601,1.3603,1.3632,1.3643,1.3659,1.3679,1.3692,1.3718,1.3734,1.3746,1.3741,1.3755,1.3746,1.3736,1.3743,1.3742,1.3742,1.3742,1.3741,1.3746,1.3746,1.3746,0,1.3496,1.3517,1.3542,1.3555,1.3568,1.3593,1.3602,1.3617,1.3646,1.3654,1.366,1.3695,1.3712,1.373,1.3729,1.3737,1.3741,1.3742,1.3741,1.374,1.374,1.374,1.374,1.3745,1.3745,1.3745,1.3745,0,1.3494,1.3509,1.3513,1.3543,1.3556,1.3566,1.3593,1.3604,1.3619,1.3637,1.3654,1.3676,1.3698,1.3703,1.3716,1.3723,1.3726,1.3736,1.3746,1.3737,1.3738,1.3738,1.3743,1.3743,1.3744,1.3744,0,0,1.3459,1.3504,1.3505,1.352,1.3552,1.3564,1.3577,1.36,1.3609,1.3629,1.3641,1.3664,1.3675,1.3688,1.3704,1.3711,1.3709,1.3721,1.3722,1.3719,1.372,1.3712,1.3712,1.3718,1.3718,1.3718,1.3718,0,1.345,1.3475,1.3499,1.3516,1.3531,1.3556,1.3568,1.3589,1.3607,1.3622,1.3642,1.3659,1.367,1.3679,1.3687,1.3707,1.3709,1.3708,1.373,1.3731,1.3724,1.3712,1.3704,1.3703,1.3718,1.3719,1.3719,0,1.3442,1.3463,1.3482,1.3515,1.3522,1.3532,1.3557,1.3571,1.3596,1.3609,1.3625,1.3643,1.3659,1.3668,1.3691,1.3689,1.37,1.3712,1.3712,1.3715,1.3724,1.3716,1.3702,1.3702,1.3719,1.3719,1.3719,0,1.3416,1.3449,1.3465,1.3477,1.3515,1.3522,1.3539,1.3564,1.3577,1.3599,1.3608,1.363,1.3643,1.366,1.3684,1.3688,1.3705,1.3715,1.3717,1.3716,1.3719,1.3718,1.3708,1.3725,1.3725,1.3725,1.3725,0,1.3404,1.3414,1.3455,1.3464,1.3478,1.3506,1.3518,1.3537,1.356,1.3575,1.3598,1.3611,1.3642,1.3659,1.3677,1.3695,1.3699,1.3711,1.3716,1.3709,1.3708,1.3716,1.3717,1.3725,1.3725,1.3725,1.3725,0,1.3376,1.3404,1.3423,1.346,1.3469,1.3477,1.3508,1.352,1.354,1.3558,1.3564,1.3595,1.3617,1.3643,1.3672,1.3685,1.3701,1.3708,1.3693,1.3696,1.3696,1.3696,1.3691,1.3693,1.3708,1.3708,1.3708,0,1.3367,1.3376,1.3414,1.3427,1.3443,1.3461,1.3476,1.3505,1.3519,1.355,1.3558,1.3582,1.3602,1.3635,1.3661,1.3684,1.3692,1.3689,1.3696,1.369,1.3694,1.3693,1.3695,1.3687,1.3687,1.3687,1.3686,0,1.3348,1.3362,1.3382,1.3408,1.3425,1.3447,1.3469,1.3477,1.3511,1.3526,1.3549,1.3565,1.3597,1.3621,1.3648,1.3665,1.3682,1.3684,1.3686,1.368,1.3671,1.3677,1.3689,1.3684,1.3684,1.3685,1.3685,1.3685,1.333,1.334,1.337,1.3393,1.3413,1.3434,1.3448,1.3471,1.3491,1.352,1.3536,1.3559,1.3586,1.3625,1.3642,1.3661,1.3666,1.3668,1.3669,1.3669,1.3668,1.3668,1.3665,1.3665,1.3666,1.3666,1.3666,0,1.3313,1.3334,1.3355,1.3387,1.3405,1.3421,1.3448,1.3462,1.3482,1.3507,1.3528,1.3556,1.358,1.3608,1.3634,1.3644,1.3653,1.365,1.365,1.3654,1.3661,1.3657,1.3643,1.3643,1.3643,1.3643,1.3643,1.3643,1.3306,1.3326,1.3344,1.3374,1.3395,1.3419,1.3433,1.3454,1.3474,1.3505,1.3525,1.3544,1.3571,1.36,1.3623,1.3631,1.364,1.3635,1.3645,1.3651,1.3653,1.3655,1.3652,1.3636,1.3636,1.3637,1.3637,1.3637]}]]